Weather History for Chehalis, WA

Change the Weather History Date:

Friday, December 13, 2013

  Actual Average (KOLM) Record (KOLM)
Temperature  
Mean Temperature 44 °F 38 °F  
Max Temperature 48 °F 44 °F 60 °F (1952)
Min Temperature 39 °F 32 °F 12 °F (1967)
Degree Days  
Heating Degree Days 20 27  
Month to date heating degree days 340  
Since 1 July heating degree days 1785  
Cooling Degree Days 0 0  
Month to date cooling degree days 0  
Year to date cooling degree days 106  
Moisture  
Dew Point 42 °F    
Average Humidity 94    
Maximum Humidity 100    
Minimum Humidity 87    
Precipitation  
Precipitation 0.03 in 0.24 in 2.12 in (2001)
Month to date precipitation 3.37  
Year to date precipitation 45.91  
Sea Level Pressure  
Sea Level Pressure 30.35 in    
Wind  
Wind Speed 8 mph (South)    
Max Wind Speed 13 mph    
Max Gust Speed 20 mph    
Visibility 9 miles    
Events Rain    
T = Trace of Precipitation, MM = Missing Value Source: NWS Daily Summary

Daily Weather History Graph

Daily Weather History Graph

Search for Another Location

Airport:

Trip Planner

Search our weather history database for the weather conditions in past years. The results will help you decide how hot, cold, wet, or windy it might be!

Date:

Astronomy

Dec. 13, 2013 Rise Set
Actual Time 7:48 AM PST 4:24 PM PST
Civil Twilight 7:13 AM PST 4:59 PM PST
Nautical Twilight 6:34 AM PST 5:37 PM PST
Astronomical Twilight 5:58 AM PST 6:14 PM PST
Moon 2:18 PM PST (12/13) 4:07 AM PST (12/13)
Length of Visible Light 9h 46m
Length of Day
8h 35m
Waxing Gibbous, 88% of the Moon is Illuminated
Dec 13
Waxing Gibbous
Dec 17
Full
Dec 25
Last Quarter
Jan 1
New
Jan 7
First Quarter

Hourly Weather History & Observations

Time (PST) Temp. Windchill Dew Point Humidity Pressure Visibility Wind Dir Wind Speed Gust Speed Precip Events Conditions
12:15 AM 41.0 °F 33.9 °F 39.2 °F 93% 30.18 in 5.0 mi South 12.7 mph 16.1 mph 0.01 in Rain Light Rain
12:35 AM 41.0 °F 34.3 °F 39.2 °F 93% 30.18 in 5.0 mi South 11.5 mph 19.6 mph 0.01 in   Overcast
12:55 AM 41.0 °F 34.3 °F 39.2 °F 93% 30.19 in 10.0 mi South 11.5 mph - 0.01 in   Overcast
1:15 AM 41.0 °F 35.2 °F 39.2 °F 93% 30.20 in 7.0 mi SSW 9.2 mph - N/A   Overcast
1:35 AM 41.0 °F 35.8 °F 39.2 °F 93% 30.21 in 10.0 mi SSW 8.1 mph - N/A   Overcast
1:55 AM 41.0 °F 35.2 °F 39.2 °F 93% 30.22 in 10.0 mi South 9.2 mph - N/A   Overcast
2:15 AM 41.0 °F 35.8 °F 39.2 °F 93% 30.23 in 10.0 mi South 8.1 mph - N/A   Overcast
2:35 AM 41.0 °F 35.8 °F 41.0 °F 100% 30.24 in 10.0 mi South 8.1 mph - N/A   Overcast
2:55 AM 41.0 °F 35.8 °F 41.0 °F 100% 30.24 in 10.0 mi South 8.1 mph - N/A   Overcast
3:15 AM 41.0 °F 35.8 °F 41.0 °F 100% 30.24 in 8.0 mi South 8.1 mph - N/A   Overcast
3:35 AM 41.0 °F 35.2 °F 41.0 °F 100% 30.24 in 8.0 mi South 9.2 mph - N/A   Overcast
3:55 AM 41.0 °F 35.8 °F 41.0 °F 100% 30.25 in 10.0 mi South 8.1 mph - N/A   Overcast
4:15 AM 41.0 °F 35.8 °F 41.0 °F 100% 30.25 in 8.0 mi South 8.1 mph - N/A   Overcast
4:35 AM 41.0 °F 35.8 °F 41.0 °F 100% 30.26 in 4.0 mi South 8.1 mph - N/A   Overcast
4:55 AM 41.0 °F 37.1 °F 41.0 °F 100% 30.27 in 4.0 mi South 5.8 mph - N/A   Overcast
5:15 AM 41.0 °F 37.1 °F 41.0 °F 100% 30.28 in 7.0 mi South 5.8 mph - 0.01 in   Overcast
5:35 AM 41.0 °F 36.4 °F 41.0 °F 100% 30.27 in 2.0 mi SSE 6.9 mph - 0.01 in Rain Light Rain
5:55 AM 41.0 °F 36.4 °F 41.0 °F 100% 30.27 in 9.0 mi South 6.9 mph - 0.02 in Rain Light Rain
6:15 AM 41.0 °F 35.8 °F 41.0 °F 100% 30.28 in 10.0 mi South 8.1 mph - N/A   Overcast
6:35 AM 41.0 °F 35.8 °F 41.0 °F 100% 30.29 in 5.0 mi South 8.1 mph - N/A   Overcast
6:55 AM 41.0 °F 36.4 °F 41.0 °F 100% 30.30 in 10.0 mi South 6.9 mph - N/A   Overcast
7:15 AM 41.0 °F 35.8 °F 41.0 °F 100% 30.30 in 10.0 mi South 8.1 mph - N/A   Overcast
7:35 AM 41.0 °F 37.1 °F 41.0 °F 100% 30.31 in 10.0 mi SSW 5.8 mph - N/A   Overcast
7:55 AM 41.0 °F 38.0 °F 41.0 °F 100% 30.32 in 10.0 mi SSW 4.6 mph - N/A   Overcast
8:15 AM 42.8 °F 39.3 °F 41.0 °F 93% 30.33 in 10.0 mi South 5.8 mph - N/A   Overcast
8:35 AM 42.8 °F 39.3 °F 41.0 °F 93% 30.34 in 10.0 mi South 5.8 mph - N/A   Overcast
8:55 AM 42.8 °F 39.3 °F 41.0 °F 93% 30.34 in 10.0 mi South 5.8 mph - N/A   Mostly Cloudy
9:15 AM 44.6 °F 41.4 °F 41.0 °F 87% 30.35 in 10.0 mi South 5.8 mph - N/A   Overcast
9:35 AM 44.6 °F 40.7 °F 42.8 °F 93% 30.37 in 10.0 mi South 6.9 mph - N/A   Overcast
9:55 AM 44.6 °F 41.4 °F 42.8 °F 93% 30.38 in 10.0 mi South 5.8 mph - N/A   Overcast
10:15 AM 44.6 °F 41.4 °F 42.8 °F 93% 30.39 in 10.0 mi South 5.8 mph - N/A   Overcast
10:35 AM 46.4 °F 43.5 °F 42.8 °F 87% 30.39 in 10.0 mi SSE 5.8 mph - N/A   Overcast
10:55 AM 46.4 °F 42.9 °F 42.8 °F 87% 30.39 in 10.0 mi SSE 6.9 mph - N/A   Overcast
11:15 AM 46.4 °F 42.4 °F 44.6 °F 93% 30.38 in 10.0 mi SSE 8.1 mph - N/A   Overcast
11:35 AM 46.4 °F 42.4 °F 44.6 °F 93% 30.38 in 10.0 mi SSE 8.1 mph - N/A   Overcast
11:55 AM 48.2 °F - 44.6 °F 87% 30.38 in 10.0 mi South 9.2 mph - N/A   Overcast
12:15 PM 48.2 °F - 44.6 °F 87% 30.38 in 10.0 mi South 6.9 mph - N/A   Overcast
12:35 PM 48.2 °F - 44.6 °F 87% 30.38 in 10.0 mi South 8.1 mph - N/A   Overcast
12:55 PM 48.2 °F - 44.6 °F 87% 30.38 in 10.0 mi South 8.1 mph - N/A   Mostly Cloudy
1:15 PM 48.2 °F - 44.6 °F 87% 30.39 in 10.0 mi South 6.9 mph - N/A   Mostly Cloudy
2:15 PM 48.2 °F - 44.6 °F 87% 30.40 in 10.0 mi South 4.6 mph - N/A   Overcast
2:35 PM 48.2 °F - 44.6 °F 87% 30.40 in 10.0 mi South 6.9 mph - N/A   Overcast
2:55 PM 48.2 °F - 44.6 °F 87% 30.41 in 10.0 mi South 8.1 mph - N/A   Overcast
3:15 PM 48.2 °F - 44.6 °F 87% 30.41 in 10.0 mi South 5.8 mph - N/A   Overcast
3:35 PM 48.2 °F - 44.6 °F 87% 30.41 in 10.0 mi SSE 5.8 mph - N/A   Overcast
3:55 PM 48.2 °F - 44.6 °F 87% 30.41 in 10.0 mi SSE 6.9 mph - N/A   Overcast
4:15 PM 48.2 °F - 44.6 °F 87% 30.41 in 10.0 mi SSE 6.9 mph - N/A   Overcast
4:35 PM 46.4 °F 42.9 °F 44.6 °F 93% 30.42 in 10.0 mi SSE 6.9 mph - N/A   Overcast
4:55 PM 46.4 °F 42.9 °F 44.6 °F 93% 30.41 in 10.0 mi South 6.9 mph - N/A   Unknown
5:15 PM 46.4 °F 42.4 °F 44.6 °F 93% 30.41 in 10.0 mi SSE 8.1 mph - N/A   Overcast
5:35 PM 46.4 °F 43.5 °F 44.6 °F 93% 30.41 in 10.0 mi South 5.8 mph - N/A   Overcast
5:55 PM 46.4 °F 44.3 °F 44.6 °F 93% 30.42 in 10.0 mi South 4.6 mph - N/A   Overcast
6:15 PM 46.4 °F 43.5 °F 44.6 °F 93% 30.41 in 10.0 mi South 5.8 mph - N/A   Overcast
6:35 PM 46.4 °F 43.5 °F 44.6 °F 93% 30.43 in 8.0 mi South 5.8 mph - N/A   Overcast
6:55 PM 44.6 °F 43.1 °F 44.6 °F 100% 30.43 in 5.0 mi SW 3.5 mph - N/A   Overcast
7:15 PM 44.6 °F 41.4 °F 44.6 °F 100% 30.43 in 10.0 mi South 5.8 mph - N/A   Overcast
7:35 PM 46.4 °F 44.3 °F 44.6 °F 93% 30.43 in 10.0 mi South 4.6 mph - N/A   Overcast
7:55 PM 46.4 °F - 42.8 °F 87% 30.43 in 10.0 mi Calm Calm - N/A   Overcast
8:15 PM 44.6 °F 43.1 °F 42.8 °F 93% 30.43 in 10.0 mi South 3.5 mph - N/A   Overcast
8:35 PM 44.6 °F 41.4 °F 42.8 °F 93% 30.44 in 10.0 mi South 5.8 mph - N/A   Overcast
8:55 PM 44.6 °F 41.4 °F 42.8 °F 93% 30.44 in 10.0 mi South 5.8 mph - N/A   Overcast
9:15 PM 44.6 °F 41.4 °F 42.8 °F 93% 30.43 in 10.0 mi South 5.8 mph - N/A   Overcast
9:35 PM 44.6 °F 43.1 °F 42.8 °F 93% 30.44 in 10.0 mi SSW 3.5 mph - N/A   Unknown
9:55 PM 44.6 °F 42.2 °F 42.8 °F 93% 30.44 in 8.0 mi South 4.6 mph - N/A   Unknown
10:15 PM 44.6 °F 43.1 °F 42.8 °F 93% 30.44 in 7.0 mi SSW 3.5 mph - N/A   Unknown
10:35 PM 44.6 °F 40.7 °F 42.8 °F 93% 30.44 in 7.0 mi SSW 6.9 mph - N/A   Unknown
10:55 PM 42.8 °F - 41.0 °F 93% 30.46 in 5.0 mi Calm Calm - N/A   Mist
11:15 PM 41.0 °F - 41.0 °F 100% 30.45 in 5.0 mi Calm Calm - N/A   Scattered Clouds
11:35 PM 41.0 °F - 41.0 °F 100% 30.45 in 2.0 mi Calm Calm - N/A   Scattered Clouds
11:55 PM 39.2 °F - 39.2 °F 100% 30.46 in 1.0 mi Calm Calm - N/A   Clear